Gallup, NM

11:38 AM MST on February 23, 2017 (GMT -0700)
Gallup Municipal

Weather History for KGUP - July, 2013

Change the Weather History Date:

Wednesday, July 3, 2013

  Actual Average Record
Temperature  
Mean Temperature 72 °F -  
Max Temperature 93 °F 86 °F 99 °F (2007)
Min Temperature 52 °F 49 °F 37 °F (1992)
Cooling Degree Days 6    
Growing Degree Days 22 (Base 50)    
Moisture  
Dew Point 42 °F    
Average Humidity 43    
Maximum Humidity 89    
Minimum Humidity 10    
Precipitation  
Precipitation 0.01 in - - ()
Sea Level Pressure  
Sea Level Pressure 29.71 in    
Wind  
Wind Speed 6 mph (East)    
Max Wind Speed 18 mph    
Max Gust Speed 28 mph    
Visibility 10 miles    
Events Rain , Thunderstorm    
Averages and records for this station are not official NWS values.
T = Trace of Precipitation, MM = Missing Value Source: NWS Daily Summary

Daily Weather History Graph

Daily Weather History Graph

Search for Another Location

Airport or City:

Trip Planner

Search our weather history database for the weather conditions in past years. The results will help you decide how hot, cold, wet, or windy it might be!

Date:

Astronomy

Jul. 03, 2013 Rise Set
Actual Time 6:04 AM MDT 8:34 PM MDT
Civil Twilight 5:34 AM MDT 9:04 PM MDT
Nautical Twilight 4:57 AM MDT 9:40 PM MDT
Astronomical Twilight 4:17 AM MDT 10:21 PM MDT
Moon 2:40 AM MDT (7/3) 4:50 PM MDT (7/3)
Length of Visible Light 15h 29m
Length of Day
14h 29m
Waning Crescent, 18% of the Moon is Illuminated
Jul 3
Waning Crescent
Jul 8
New
Jul 15
First Quarter
Jul 22
Full
Jul 29
Last Quarter

Hourly Weather History & Observations

Time (MDT) Temp. Dew Point Humidity Pressure Visibility Wind Dir Wind Speed Gust Speed Precip Events Conditions
12:53 AM 64.0 °F 51.1 °F 63% 29.68 in 10.0 mi South 10.4 mph - 0.00 in Rain Light Rain
1:17 AM 62.6 °F 51.8 °F 68% 30.24 in 10.0 mi Calm Calm - 0.00 in Thunderstorm Thunderstorm
1:38 AM 62.6 °F 51.8 °F 68% 30.23 in 10.0 mi South 10.4 mph - 0.01 in Rain Light Rain
1:53 AM 62.1 °F 51.1 °F 67% 29.85 in 10.0 mi SSW 10.4 mph - 0.01 in Rain Light Rain
2:53 AM 60.1 °F 50.0 °F 69% 29.80 in 10.0 mi SW 4.6 mph - N/A   Clear
3:53 AM 57.0 °F 50.0 °F 77% 29.78 in 10.0 mi Calm Calm - N/A   Clear
4:53 AM 55.9 °F 50.0 °F 80% 29.82 in 10.0 mi Calm Calm - N/A   Clear
5:53 AM 54.0 °F 50.0 °F 86% 29.81 in 10.0 mi Calm Calm - N/A   Clear
6:53 AM 52.0 °F 48.9 °F 89% 29.82 in 10.0 mi Calm Calm - N/A   Clear
7:53 AM 61.0 °F 50.0 °F 67% 29.79 in 10.0 mi Calm Calm - N/A   Clear
8:53 AM 66.0 °F 51.1 °F 59% 29.78 in 10.0 mi Calm Calm - N/A   Clear
9:53 AM 70.0 °F 51.1 °F 51% 29.75 in 10.0 mi West 4.6 mph - N/A   Clear
10:53 AM 73.9 °F 48.9 °F 41% 29.72 in 10.0 mi Variable 4.6 mph - N/A   Clear
11:53 AM 77.0 °F 48.0 °F 36% 29.69 in 10.0 mi Calm Calm - N/A   Clear
12:53 PM 82.9 °F 45.0 °F 26% 29.64 in 10.0 mi Variable 5.8 mph - N/A   Clear
1:53 PM 88.0 °F 26.1 °F 11% 29.60 in 10.0 mi NE 10.4 mph 23.0 mph N/A   Clear
2:53 PM 90.0 °F 28.9 °F 11% 29.57 in 10.0 mi North 17.3 mph 23.0 mph N/A   Clear
3:53 PM 91.9 °F 28.0 °F 10% 29.54 in 10.0 mi NE 15.0 mph 27.6 mph N/A   Clear
4:53 PM 91.0 °F 28.9 °F 11% 29.52 in 10.0 mi NE 18.4 mph 26.5 mph N/A   Clear
5:53 PM 90.0 °F 28.9 °F 11% 29.52 in 10.0 mi NE 16.1 mph - N/A   Clear
6:53 PM 88.0 °F 30.9 °F 13% 29.55 in 10.0 mi ENE 13.8 mph - N/A   Clear
7:53 PM 86.0 °F 30.0 °F 13% 29.51 in 10.0 mi NE 11.5 mph - N/A   Clear
8:53 PM 81.0 °F 30.9 °F 16% 29.52 in 10.0 mi Calm Calm - N/A   Clear
9:53 PM 73.0 °F 30.9 °F 21% 29.57 in 10.0 mi South 3.5 mph - N/A   Clear
10:53 PM 77.0 °F 35.1 °F 22% 29.52 in 10.0 mi Variable 4.6 mph - N/A   Clear
11:53 PM 73.0 °F 33.1 °F 23% 29.54 in 10.0 mi Variable 3.5 mph - N/A   Partly Cloudy